User: anonymous   Login
Location: Unspecified
(0.0000°N, 0.0000°E)
Time: 10:51:19
(UTC+00:00)
Language:

HJ-1B - Orbit

View from above orbital plane
View from above orbital plane
View from above satellite
View from above satellite

Ground track
Ground track

The orbit data is extracted from the following two-line orbital elements,

1 33321U 08041B   18201.13748123  .00000108  00000-0  22477-4 0  9991
2 33321  97.8921 264.5914 0034133 195.1011 164.9203 14.77031216531515
Epoch (UTC): 20 July 2018 03:17:58
Eccentricity: 0.0034133
inclination: 97.8921°
perigee height: 615 km
apogee height: 662 km
right ascension of ascending node: 264.5914°
argument of perigee: 195.1011°
revolutions per day: 14.77031216
mean anomaly at epoch: 164.9203°
orbit number at epoch: 53151

The dashed part of the orbit path shows where the satellite is in the earth's shadow,  

DLR